| time (UTC) | temp C | wind direction | speed KPH | gust KPH | rain 1hr cm | rain 24hr cm | rain mn cm | humidity % | barometer mb |
| 20260502170424 | 16 | 136 | 0.0 | 0.0 | 0.00 | 0.00 | 0.00 | 41 | 1023.8 |
| 20260502163908 | 16 | 335 | 3.2 | 4.8 | 0.00 | 0.00 | 0.00 | 40 | 1024.1 |
| 20260502163404 | 17 | 114 | 1.6 | 1.6 | 0.00 | 0.00 | 0.00 | 38 | 1024.2 |
| 20260502162902 | 17 | 119 | 0.0 | 0.0 | 0.00 | 0.00 | 0.00 | 38 | 1024.0 |
| 20260502162358 | 17 | 94 | 1.6 | 3.2 | 0.00 | 0.00 | 0.00 | 38 | 1024.1 |
| 20260502161855 | 16 | 123 | 0.0 | 1.6 | 0.00 | 0.00 | 0.00 | 44 | 1024.0 |
| 20260502161351 | 16 | 118 | 0.0 | 0.0 | 0.00 | 0.00 | 0.00 | 46 | 1024.1 |
| 20260502160849 | 16 | 67 | 3.2 | 3.2 | 0.00 | 0.00 | 0.00 | 44 | 1024.1 |
| 20260502160347 | 17 | 108 | 1.6 | 3.2 | 0.00 | 0.00 | 0.00 | 39 | 1024.1 |
| 20260502152328 | 16 | 135 | 0.0 | 0.0 | 0.00 | 0.00 | 0.00 | 52 | 1024.2 |
| 20260502151826 | 15 | 133 | 0.0 | 0.0 | 0.00 | 0.00 | 0.00 | 48 | 1024.1 |
| 20260502151322 | 15 | 130 | 0.0 | 0.0 | 0.00 | 0.00 | 0.00 | 52 | 1024.0 |
| 20260502150820 | 14 | 128 | 0.0 | 0.0 | 0.00 | 0.00 | 0.00 | 52 | 1024.5 |
| 20260502150316 | 15 | 126 | 0.0 | 0.0 | 0.00 | 0.00 | 0.00 | 53 | 1024.6 |
| 20260502130705 | 6 | 126 | 0.0 | 0.0 | 0.00 | 0.00 | 0.00 | 98 | 1023.2 |
| 20260502130202 | 6 | 126 | 0.0 | 0.0 | 0.00 | 0.00 | 0.00 | 98 | 1023.6 |
| 20260502123648 | 5 | 126 | 0.0 | 0.0 | 0.00 | 0.00 | 0.00 | 98 | 1023.3 |
| 20260502123145 | 5 | 126 | 0.0 | 0.0 | 0.00 | 0.00 | 0.00 | 98 | 1023.4 |
| 20260502122641 | 5 | 126 | 0.0 | 0.0 | 0.00 | 0.00 | 0.00 | 98 | 1023.1 |
| 20260502122138 | 5 | 126 | 0.0 | 0.0 | 0.00 | 0.00 | 0.00 | 98 | 1022.9 |
| 20260502121636 | 5 | 126 | 0.0 | 0.0 | 0.00 | 0.00 | 0.00 | 98 | 1022.8 |
| 20260502121133 | 5 | 126 | 0.0 | 0.0 | 0.00 | 0.00 | 0.00 | 98 | 1022.7 |
| 20260502120629 | 5 | 126 | 0.0 | 0.0 | 0.00 | 0.00 | 0.00 | 98 | 1022.6 |
| 20260502120126 | 5 | 126 | 0.0 | 0.0 | 0.00 | 0.00 | 0.00 | 98 | 1022.9 |
| 20260502115624 | 5 | 125 | 0.0 | 0.0 | 0.00 | 0.00 | 0.00 | 98 | 1022.8 |
| 20260502115120 | 5 | 125 | 0.0 | 0.0 | 0.00 | 0.00 | 0.00 | 98 | 1022.6 |
| 20260502114616 | 5 | 125 | 0.0 | 0.0 | 0.00 | 0.00 | 0.00 | 98 | 1022.6 |
| 20260502114114 | 5 | 125 | 0.0 | 0.0 | 0.00 | 0.00 | 0.00 | 98 | 1022.5 |
| 20260502113611 | 5 | 125 | 0.0 | 0.0 | 0.00 | 0.00 | 0.00 | 98 | 1022.4 |
| 20260502113109 | 5 | 125 | 0.0 | 0.0 | 0.00 | 0.00 | 0.00 | 98 | 1022.4 |
| 20260502112607 | 5 | 125 | 0.0 | 0.0 | 0.00 | 0.00 | 0.00 | 98 | 1022.4 |
| 20260502112104 | 5 | 125 | 0.0 | 0.0 | 0.00 | 0.00 | 0.00 | 98 | 1022.4 |
| 20260502111601 | 5 | 125 | 0.0 | 0.0 | 0.00 | 0.00 | 0.00 | 98 | 1022.1 |
| 20260502111059 | 5 | 125 | 0.0 | 0.0 | 0.00 | 0.00 | 0.00 | 98 | 1022.3 |
| 20260502110556 | 5 | 125 | 0.0 | 0.0 | 0.00 | 0.00 | 0.00 | 98 | 1022.3 |
| 20260502110054 | 5 | 125 | 0.0 | 0.0 | 0.00 | 0.00 | 0.00 | 98 | 1022.1 |
| 20260502105551 | 5 | 125 | 0.0 | 0.0 | 0.00 | 0.00 | 0.00 | 98 | 1022.0 |
| 20260502105048 | 5 | 125 | 0.0 | 0.0 | 0.00 | 0.00 | 0.00 | 98 | 1022.1 |
| 20260502104545 | 5 | 125 | 0.0 | 0.0 | 0.00 | 0.00 | 0.00 | 98 | 1022.3 |
| 20260502104043 | 5 | 125 | 0.0 | 0.0 | 0.00 | 0.00 | 0.00 | 98 | 1022.0 |
| 20260502103540 | 6 | 125 | 0.0 | 0.0 | 0.00 | 0.00 | 0.00 | 98 | 1022.3 |
| 20260502103038 | 6 | 125 | 0.0 | 0.0 | 0.00 | 0.00 | 0.00 | 98 | 1022.2 |
| 20260502102534 | 6 | 125 | 0.0 | 0.0 | 0.00 | 0.00 | 0.00 | 98 | 1022.1 |
| 20260502102032 | 6 | 125 | 0.0 | 0.0 | 0.00 | 0.00 | 0.00 | 98 | 1022.2 |
| 20260502101529 | 6 | 125 | 0.0 | 0.0 | 0.00 | 0.00 | 0.00 | 98 | 1022.2 |
| 20260502101027 | 6 | 125 | 0.0 | 0.0 | 0.00 | 0.00 | 0.00 | 98 | 1022.1 |
| 20260502100526 | 6 | 125 | 0.0 | 0.0 | 0.00 | 0.00 | 0.00 | 98 | 1022.0 |
| 20260502091500 | 7 | 124 | 0.0 | 0.0 | 0.00 | 0.00 | 0.00 | 98 | 1021.6 |
| 20260502090958 | 7 | 122 | 0.0 | 0.0 | 0.00 | 0.00 | 0.00 | 98 | 1021.7 |
| 20260502090454 | 6 | 102 | 0.0 | 0.0 | 0.00 | 0.00 | 0.00 | 98 | 1021.6 |
| 20260502071349 | 8 | 134 | 0.0 | 0.0 | 0.00 | 0.00 | 0.00 | 93 | 1022.0 |
| 20260502070847 | 9 | 137 | 0.0 | 1.6 | 0.00 | 0.00 | 0.00 | 92 | 1021.7 |
| 20260502070344 | 9 | 94 | 0.0 | 0.0 | 0.00 | 0.00 | 0.00 | 93 | 1021.4 |
| 20260502065843 | 10 | 140 | 0.0 | 1.6 | 0.00 | 0.00 | 0.00 | 92 | 1022.1 |
| 20260502065340 | 9 | 180 | 1.6 | 1.6 | 0.00 | 0.00 | 0.00 | 93 | 1022.5 |
| 20260502064838 | 9 | 121 | 0.0 | 0.0 | 0.00 | 0.00 | 0.00 | 93 | 1022.6 |
| 20260502064336 | 9 | 141 | 0.0 | 0.0 | 0.00 | 0.00 | 0.00 | 93 | 1022.3 |
| 20260502063833 | 10 | 169 | 0.0 | 0.0 | 0.00 | 0.00 | 0.00 | 92 | 1022.1 |
| 20260502063331 | 10 | 146 | 0.0 | 0.0 | 0.00 | 0.00 | 0.00 | 92 | 1022.0 |
| 20260502062828 | 10 | 135 | 0.0 | 0.0 | 0.00 | 0.00 | 0.00 | 92 | 1021.4 |
| 20260502062325 | 10 | 138 | 0.0 | 0.0 | 0.00 | 0.00 | 0.00 | 92 | 1021.4 |
| 20260502061824 | 10 | 129 | 0.0 | 0.0 | 0.00 | 0.00 | 0.00 | 92 | 1021.5 |
| 20260502061322 | 10 | 129 | 0.0 | 0.0 | 0.00 | 0.00 | 0.00 | 92 | 1021.5 |
| 20260502060817 | 10 | 129 | 0.0 | 0.0 | 0.00 | 0.00 | 0.00 | 92 | 1021.3 |
| 20260502060312 | 10 | 129 | 0.0 | 0.0 | 0.00 | 0.00 | 0.00 | 92 | 1021.3 |
| 20260502055810 | 10 | 129 | 0.0 | 0.0 | 0.00 | 0.00 | 0.00 | 92 | 1021.2 |
| 20260502055308 | 10 | 129 | 0.0 | 0.0 | 0.00 | 0.00 | 0.00 | 91 | 1021.4 |
| 20260502054808 | 10 | 129 | 0.0 | 0.0 | 0.00 | 0.00 | 0.00 | 91 | 1021.4 |
| 20260502054305 | 10 | 127 | 0.0 | 0.0 | 0.00 | 0.00 | 0.00 | 90 | 1021.7 |
| 20260502053802 | 10 | 128 | 0.0 | 0.0 | 0.00 | 0.00 | 0.00 | 90 | 1022.0 |
| 20260502053259 | 10 | 129 | 0.0 | 0.0 | 0.00 | 0.00 | 0.00 | 89 | 1021.8 |
| 20260502052757 | 10 | 128 | 0.0 | 0.0 | 0.00 | 0.00 | 0.00 | 89 | 1021.4 |
| 20260502052255 | 11 | 124 | 0.0 | 0.0 | 0.00 | 0.00 | 0.00 | 88 | 1021.4 |
| 20260502051752 | 11 | 130 | 0.0 | 1.6 | 0.00 | 0.00 | 0.00 | 86 | 1021.2 |
| 20260502051251 | 11 | 123 | 0.0 | 0.0 | 0.00 | 0.00 | 0.00 | 82 | 1021.2 |
| 20260502050746 | 11 | 122 | 0.0 | 0.0 | 0.00 | 0.00 | 0.00 | 82 | 1020.9 |
| 20260502050242 | 11 | 53 | 1.6 | 3.2 | 0.00 | 0.00 | 0.00 | 82 | 1020.7 |
| 20260502045740 | 11 | 135 | 0.0 | 0.0 | 0.00 | 0.00 | 0.00 | 84 | 1020.6 |
| 20260502045237 | 11 | 135 | 0.0 | 0.0 | 0.00 | 0.00 | 0.00 | 82 | 1020.6 |
| 20260502044734 | 11 | 136 | 0.0 | 0.0 | 0.00 | 0.00 | 0.00 | 81 | 1020.5 |
| 20260502044230 | 11 | 135 | 0.0 | 0.0 | 0.00 | 0.00 | 0.00 | 81 | 1020.5 |
| 20260502043727 | 12 | 136 | 0.0 | 0.0 | 0.00 | 0.00 | 0.00 | 78 | 1020.3 |
| 20260502043225 | 12 | 136 | 0.0 | 0.0 | 0.00 | 0.00 | 0.00 | 75 | 1020.5 |
| 20260502042724 | 12 | 139 | 0.0 | 0.0 | 0.00 | 0.00 | 0.00 | 70 | 1020.6 |
| 20260502042222 | 12 | 142 | 0.0 | 0.0 | 0.00 | 0.00 | 0.00 | 70 | 1020.6 |
| 20260502041719 | 12 | 136 | 0.0 | 0.0 | 0.00 | 0.00 | 0.00 | 69 | 1020.4 |
| 20260502041216 | 12 | 133 | 0.0 | 0.0 | 0.00 | 0.00 | 0.00 | 72 | 1020.3 |
| 20260502040713 | 12 | 129 | 0.0 | 0.0 | 0.00 | 0.00 | 0.00 | 71 | 1019.8 |
| 20260502040210 | 12 | 129 | 0.0 | 0.0 | 0.00 | 0.00 | 0.00 | 72 | 1020.0 |
| 20260502035706 | 12 | 128 | 0.0 | 0.0 | 0.00 | 0.00 | 0.00 | 69 | 1020.3 |
| 20260502035203 | 12 | 130 | 0.0 | 0.0 | 0.00 | 0.00 | 0.00 | 68 | 1020.7 |
| 20260502034700 | 12 | 130 | 0.0 | 0.0 | 0.00 | 0.00 | 0.00 | 67 | 1020.8 |
| 20260502034159 | 12 | 130 | 0.0 | 0.0 | 0.00 | 0.00 | 0.00 | 67 | 1020.8 |
| 20260502033656 | 12 | 129 | 0.0 | 0.0 | 0.00 | 0.00 | 0.00 | 66 | 1020.9 |
| 20260502033154 | 12 | 129 | 0.0 | 0.0 | 0.00 | 0.00 | 0.00 | 66 | 1021.0 |
| 20260502032650 | 12 | 129 | 0.0 | 0.0 | 0.00 | 0.00 | 0.00 | 66 | 1020.6 |
| 20260502032146 | 12 | 129 | 0.0 | 0.0 | 0.00 | 0.00 | 0.00 | 66 | 1020.6 |
| 20260502031644 | 12 | 129 | 0.0 | 0.0 | 0.00 | 0.00 | 0.00 | 66 | 1020.9 |
| 20260502031142 | 12 | 129 | 0.0 | 0.0 | 0.00 | 0.00 | 0.00 | 66 | 1020.7 |
| 20260502030641 | 12 | 129 | 0.0 | 0.0 | 0.00 | 0.00 | 0.00 | 65 | 1020.7 |
| 20260502030138 | 12 | 129 | 0.0 | 0.0 | 0.00 | 0.00 | 0.00 | 65 | 1020.6 |
| 20260502025635 | 12 | 129 | 0.0 | 0.0 | 0.00 | 0.00 | 0.00 | 64 | 1020.6 |
| 20260502025133 | 12 | 130 | 0.0 | 0.0 | 0.00 | 0.00 | 0.00 | 64 | 1020.6 |
| 20260502024631 | 12 | 130 | 0.0 | 0.0 | 0.00 | 0.00 | 0.00 | 64 | 1020.6 |
| 20260502024129 | 12 | 130 | 0.0 | 0.0 | 0.00 | 0.00 | 0.00 | 64 | 1020.4 |
| 20260502023627 | 12 | 130 | 0.0 | 0.0 | 0.00 | 0.00 | 0.00 | 64 | 1020.5 |
| 20260502023123 | 12 | 130 | 0.0 | 0.0 | 0.00 | 0.00 | 0.00 | 64 | 1020.1 |
| 20260502022620 | 12 | 130 | 0.0 | 0.0 | 0.00 | 0.00 | 0.00 | 64 | 1020.3 |
| 20260502022118 | 12 | 130 | 0.0 | 0.0 | 0.00 | 0.00 | 0.00 | 64 | 1020.1 |
| 20260502021615 | 12 | 130 | 0.0 | 0.0 | 0.00 | 0.00 | 0.00 | 63 | 1019.9 |
| 20260502021111 | 13 | 130 | 0.0 | 0.0 | 0.00 | 0.00 | 0.00 | 63 | 1019.8 |
| 20260502020609 | 13 | 130 | 0.0 | 0.0 | 0.00 | 0.00 | 0.00 | 61 | 1019.9 |
| 20260502020106 | 13 | 130 | 0.0 | 0.0 | 0.00 | 0.00 | 0.00 | 61 | 1020.0 |
| 20260502015604 | 13 | 130 | 0.0 | 0.0 | 0.00 | 0.00 | 0.00 | 60 | 1020.0 |
| 20260502015100 | 13 | 130 | 0.0 | 0.0 | 0.00 | 0.00 | 0.00 | 59 | 1019.9 |
| 20260502014557 | 13 | 130 | 0.0 | 0.0 | 0.00 | 0.00 | 0.00 | 58 | 1019.7 |
| 20260502014054 | 13 | 128 | 0.0 | 0.0 | 0.00 | 0.00 | 0.00 | 57 | 1019.8 |
| 20260502013549 | 14 | 129 | 0.0 | 0.0 | 0.00 | 0.00 | 0.00 | 56 | 1019.6 |
| 20260502013046 | 14 | 129 | 0.0 | 0.0 | 0.00 | 0.00 | 0.00 | 57 | 1019.6 |
| 20260502012543 | 14 | 131 | 0.0 | 0.0 | 0.00 | 0.00 | 0.00 | 56 | 1019.5 |
| 20260502012041 | 15 | 133 | 0.0 | 0.0 | 0.00 | 0.00 | 0.00 | 55 | 1019.6 |
| 20260502011537 | 15 | 129 | 0.0 | 0.0 | 0.00 | 0.00 | 0.00 | 54 | 1019.8 |
| 20260502011034 | 15 | 129 | 0.0 | 0.0 | 0.00 | 0.00 | 0.00 | 55 | 1019.5 |
| 20260502010532 | 15 | 132 | 0.0 | 0.0 | 0.00 | 0.00 | 0.00 | 54 | 1019.3 |
| 20260502010027 | 15 | 116 | 0.0 | 0.0 | 0.00 | 0.00 | 0.00 | 54 | 1019.0 |
| 20260502005526 | 15 | 131 | 0.0 | 0.0 | 0.00 | 0.00 | 0.00 | 53 | 1018.9 |
| 20260502005023 | 15 | 118 | 0.0 | 0.0 | 0.00 | 0.00 | 0.00 | 54 | 1019.0 |
| 20260502004518 | 15 | 342 | 0.0 | 0.0 | 0.00 | 0.00 | 0.00 | 53 | 1018.7 |
| 20260502004015 | 15 | 126 | 0.0 | 0.0 | 0.00 | 0.00 | 0.00 | 54 | 1018.9 |
| 20260502003514 | 15 | 127 | 0.0 | 0.0 | 0.00 | 0.00 | 0.00 | 53 | 1018.9 |
| 20260502003010 | 15 | 38 | 4.8 | 9.7 | 0.00 | 0.00 | 0.00 | 51 | 1018.8 |
| 20260502002507 | 16 | 129 | 0.0 | 0.0 | 0.00 | 0.00 | 0.00 | 52 | 1018.8 |
| 20260502002004 | 16 | 113 | 0.0 | 0.0 | 0.00 | 0.00 | 0.00 | 52 | 1018.8 |
| 20260502001501 | 16 | 125 | 0.0 | 0.0 | 0.00 | 0.00 | 0.00 | 51 | 1018.9 |
| 20260502000959 | 16 | 132 | 0.0 | 0.0 | 0.00 | 0.00 | 0.00 | 51 | 1018.7 |
| 20260502000457 | 16 | 135 | 0.0 | 0.0 | 0.00 | 0.00 | 0.00 | 51 | 1018.6 |
| 20260501235953 | 16 | 125 | 0.0 | 0.0 | 0.00 | 0.00 | 0.00 | 51 | 1018.6 |
| 20260501235449 | 16 | 39 | 1.6 | 1.6 | 0.00 | 0.00 | 0.00 | 51 | 1018.6 |
| 20260501234944 | 16 | 123 | 0.0 | 0.0 | 0.00 | 0.00 | 0.00 | 51 | 1018.6 |
| 20260501234441 | 16 | 141 | 0.0 | 0.0 | 0.00 | 0.00 | 0.00 | 52 | 1018.8 |
| 20260501233940 | 16 | 130 | 0.0 | 0.0 | 0.00 | 0.00 | 0.00 | 52 | 1018.6 |
| 20260501233437 | 16 | 129 | 0.0 | 0.0 | 0.00 | 0.00 | 0.00 | 51 | 1018.4 |
| 20260501232932 | 16 | 118 | 1.6 | 1.6 | 0.00 | 0.00 | 0.00 | 51 | 1018.6 |
| 20260501232430 | 16 | 118 | 1.6 | 1.6 | 0.00 | 0.00 | 0.00 | 51 | 1018.4 |
| 20260501231927 | 16 | 277 | 3.2 | 4.8 | 0.00 | 0.00 | 0.00 | 50 | 1018.4 |
| 20260501231426 | 16 | 122 | 1.6 | 3.2 | 0.00 | 0.00 | 0.00 | 50 | 1018.3 |
| 20260501230923 | 17 | 329 | 3.2 | 11.3 | 0.00 | 0.00 | 0.00 | 49 | 1018.0 |
| 20260501230422 | 17 | 123 | 0.0 | 0.0 | 0.00 | 0.00 | 0.00 | 48 | 1018.2 |
| 20260501225919 | 18 | 129 | 1.6 | 3.2 | 0.00 | 0.00 | 0.00 | 45 | 1018.0 |
| 20260501225417 | 19 | 20 | 6.4 | 11.3 | 0.00 | 0.00 | 0.00 | 42 | 1018.0 |
| 20260501224912 | 20 | 288 | 4.8 | 4.8 | 0.00 | 0.00 | 0.00 | 35 | 1017.8 |
| 20260501224410 | 21 | 267 | 0.0 | 1.6 | 0.00 | 0.00 | 0.00 | 34 | 1017.7 |
| 20260501223906 | 22 | 97 | 0.0 | 0.0 | 0.00 | 0.00 | 0.00 | 32 | 1017.8 |
| 20260501223402 | 22 | 172 | 0.0 | 0.0 | 0.00 | 0.00 | 0.00 | 33 | 1017.6 |
| 20260501222858 | 21 | 125 | 0.0 | 1.6 | 0.00 | 0.00 | 0.00 | 33 | 1017.6 |
| 20260501222356 | 21 | 298 | 4.8 | 4.8 | 0.00 | 0.00 | 0.00 | 33 | 1017.7 |
| 20260501221852 | 21 | 161 | 0.0 | 1.6 | 0.00 | 0.00 | 0.00 | 31 | 1017.5 |
| 20260501221349 | 20 | 235 | 1.6 | 1.6 | 0.00 | 0.00 | 0.00 | 34 | 1017.5 |
| 20260501220847 | 21 | 300 | 3.2 | 4.8 | 0.00 | 0.00 | 0.00 | 32 | 1017.6 |
| 20260501220344 | 21 | 204 | 3.2 | 4.8 | 0.00 | 0.00 | 0.00 | 31 | 1017.4 |
| 20260501215841 | 22 | 304 | 1.6 | 3.2 | 0.00 | 0.00 | 0.00 | 30 | 1017.6 |
| 20260501215337 | 21 | 147 | 0.0 | 0.0 | 0.00 | 0.00 | 0.00 | 31 | 1017.7 |
| 20260501214832 | 22 | 105 | 0.0 | 1.6 | 0.00 | 0.00 | 0.00 | 31 | 1017.7 |
| 20260501214328 | 22 | 298 | 0.0 | 0.0 | 0.00 | 0.00 | 0.00 | 30 | 1017.9 |
| 20260501213819 | 22 | 146 | 0.0 | 0.0 | 0.00 | 0.00 | 0.00 | 29 | 1017.8 |
| 20260501213315 | 22 | 228 | 0.0 | 0.0 | 0.00 | 0.00 | 0.00 | 28 | 1017.6 |
| 20260501212811 | 21 | 159 | 0.0 | 0.0 | 0.00 | 0.00 | 0.00 | 29 | 1017.9 |
| 20260501212308 | 20 | 18 | 0.0 | 0.0 | 0.00 | 0.00 | 0.00 | 30 | 1018.0 |
| 20260501211805 | 20 | 302 | 1.6 | 3.2 | 0.00 | 0.00 | 0.00 | 31 | 1018.3 |
| 20260501211302 | 22 | 154 | 0.0 | 0.0 | 0.00 | 0.00 | 0.00 | 30 | 1018.1 |
| 20260501210759 | 22 | 267 | 4.8 | 4.8 | 0.00 | 0.00 | 0.00 | 28 | 1018.3 |
| 20260501210256 | 22 | 24 | 3.2 | 8.0 | 0.00 | 0.00 | 0.00 | 28 | 1018.2 |
| 20260501205752 | 21 | 172 | 0.0 | 0.0 | 0.00 | 0.00 | 0.00 | 27 | 1018.2 |
| 20260501205249 | 21 | 153 | 0.0 | 0.0 | 0.00 | 0.00 | 0.00 | 29 | 1018.4 |
| 20260501204746 | 21 | 132 | 0.0 | 0.0 | 0.00 | 0.00 | 0.00 | 33 | 1018.5 |
| 20260501204243 | 21 | 210 | 0.0 | 0.0 | 0.00 | 0.00 | 0.00 | 28 | 1018.7 |
| 20260501203739 | 21 | 340 | 3.2 | 3.2 | 0.00 | 0.00 | 0.00 | 29 | 1018.7 |
| 20260501203237 | 20 | 133 | 0.0 | 0.0 | 0.00 | 0.00 | 0.00 | 30 | 1018.7 |
| 20260501202733 | 20 | 16 | 0.0 | 0.0 | 0.00 | 0.00 | 0.00 | 31 | 1019.0 |
| 20260501202230 | 20 | 347 | 0.0 | 0.0 | 0.00 | 0.00 | 0.00 | 30 | 1019.0 |
| 20260501201727 | 20 | 330 | 3.2 | 3.2 | 0.00 | 0.00 | 0.00 | 31 | 1019.2 |
| 20260501201224 | 21 | 126 | 0.0 | 0.0 | 0.00 | 0.00 | 0.00 | 32 | 1019.0 |
| 20260501200721 | 21 | 150 | 0.0 | 0.0 | 0.00 | 0.00 | 0.00 | 28 | 1019.2 |
| 20260501200218 | 21 | 148 | 0.0 | 0.0 | 0.00 | 0.00 | 0.00 | 30 | 1019.2 |
| 20260501195715 | 21 | 150 | 1.6 | 1.6 | 0.00 | 0.00 | 0.00 | 29 | 1019.5 |
| 20260501195211 | 20 | 191 | 1.6 | 1.6 | 0.00 | 0.00 | 0.00 | 29 | 1019.7 |
| 20260501194707 | 20 | 353 | 1.6 | 4.8 | 0.00 | 0.00 | 0.00 | 31 | 1019.7 |
| 20260501194203 | 21 | 350 | 0.0 | 0.0 | 0.00 | 0.00 | 0.00 | 29 | 1019.8 |
| 20260501193700 | 20 | 188 | 1.6 | 3.2 | 0.00 | 0.00 | 0.00 | 29 | 1020.3 |
| 20260501193158 | 20 | 78 | 0.0 | 1.6 | 0.00 | 0.00 | 0.00 | 33 | 1020.2 |
| 20260501192655 | 20 | 78 | 0.0 | 1.6 | 0.00 | 0.00 | 0.00 | 33 | 1020.4 |
| 20260501192152 | 20 | 78 | 0.0 | 1.6 | 0.00 | 0.00 | 0.00 | 33 | 1020.3 |
| 20260501191649 | 20 | 107 | 0.0 | 1.6 | 0.00 | 0.00 | 0.00 | 33 | 1020.5 |
| 20260501191147 | 20 | 315 | 4.8 | 4.8 | 0.00 | 0.00 | 0.00 | 30 | 1020.3 |
| 20260501190643 | 21 | 41 | 0.0 | 1.6 | 0.00 | 0.00 | 0.00 | 30 | 1020.4 |
| 20260501190137 | 21 | 41 | 0.0 | 1.6 | 0.00 | 0.00 | 0.00 | 30 | 1020.2 |
| 20260501185629 | 21 | 41 | 0.0 | 1.6 | 0.00 | 0.00 | 0.00 | 30 | 1020.3 |
| 20260501185124 | 21 | 41 | 0.0 | 1.6 | 0.00 | 0.00 | 0.00 | 30 | 1020.4 |
| 20260501184621 | 21 | 41 | 0.0 | 1.6 | 0.00 | 0.00 | 0.00 | 30 | 1020.6 |
| 20260501184115 | 21 | 41 | 0.0 | 1.6 | 0.00 | 0.00 | 0.00 | 30 | 1020.4 |
| 20260501183613 | 21 | 41 | 0.0 | 1.6 | 0.00 | 0.00 | 0.00 | 30 | 1020.6 |
| 20260501183109 | 21 | 41 | 0.0 | 1.6 | 0.00 | 0.00 | 0.00 | 30 | 1020.7 |
| 20260501182606 | 21 | 41 | 0.0 | 1.6 | 0.00 | 0.00 | 0.00 | 30 | 1020.6 |
| 20260501182103 | 21 | 41 | 0.0 | 1.6 | 0.00 | 0.00 | 0.00 | 30 | 1020.8 |
| 20260501181600 | 21 | 41 | 0.0 | 1.6 | 0.00 | 0.00 | 0.00 | 30 | 1020.9 |
| 20260501181056 | 21 | 41 | 0.0 | 1.6 | 0.00 | 0.00 | 0.00 | 30 | 1020.9 |
| 20260501180555 | 21 | 289 | 6.4 | 9.7 | 0.00 | 0.00 | 0.00 | 29 | 1020.9 |
| 20260501180050 | 21 | 116 | 0.0 | 0.0 | 0.00 | 0.00 | 0.00 | 30 | 1020.9 |
| 20260501175547 | 21 | 155 | 3.2 | 3.2 | 0.00 | 0.00 | 0.00 | 29 | 1021.0 |
| 20260501175044 | 20 | 331 | 3.2 | 4.8 | 0.00 | 0.00 | 0.00 | 28 | 1021.0 |
| 20260501174541 | 21 | 117 | 0.0 | 1.6 | 0.00 | 0.00 | 0.00 | 27 | 1021.0 |
| 20260501174039 | 20 | 126 | 0.0 | 0.0 | 0.00 | 0.00 | 0.00 | 31 | 1021.0 |
| 20260501173536 | 20 | 138 | 0.0 | 1.6 | 0.00 | 0.00 | 0.00 | 31 | 1021.0 |
| 20260501173033 | 20 | 127 | 0.0 | 0.0 | 0.00 | 0.00 | 0.00 | 32 | 1021.2 |
| 20260501172528 | 21 | 138 | 0.0 | 0.0 | 0.00 | 0.00 | 0.00 | 31 | 1021.3 |
| 20260501172024 | 21 | 347 | 3.2 | 3.2 | 0.00 | 0.00 | 0.00 | 30 | 1021.2 |
| 20260501171520 | 21 | 134 | 0.0 | 0.0 | 0.00 | 0.00 | 0.00 | 34 | 1021.1 |